Weather History for Biloxi, MS

Change the Weather History Date:

Thursday, March 6, 2014

  Actual Average Record
Temperature  
Mean Temperature 54 °F -  
Max Temperature 60 °F 67 °F 80 °F (1955)
Min Temperature 48 °F 48 °F 29 °F (1960)
Degree Days  
Heating Degree Days 11    
Growing Degree Days 4 (Base 50)    
Moisture  
Dew Point 51 °F    
Average Humidity 96    
Maximum Humidity 100    
Minimum Humidity 73    
Precipitation  
Precipitation 0.26 in - - ()
Sea Level Pressure  
Sea Level Pressure 29.95 in    
Wind  
Wind Speed 7 mph (North)    
Max Wind Speed 13 mph    
Max Gust Speed -    
Visibility 8 miles    
Events Rain    
Averages and records for this station are not official NWS values.
T = Trace of Precipitation, MM = Missing Value Source: NWS Daily Summary

Daily Weather History Graph

Daily Weather History Graph

Search for Another Location

Airport:

Trip Planner

Search our weather history database for the weather conditions in past years. The results will help you decide how hot, cold, wet, or windy it might be!

Date:

Astronomy

Mar. 06, 2014 Rise Set
Actual Time 6:16 AM CST 5:58 PM CST
Civil Twilight 5:52 AM CST 6:22 PM CST
Nautical Twilight 5:24 AM CST 6:49 PM CST
Astronomical Twilight 4:56 AM CST 7:17 PM CST
Moon 9:47 AM CST (3/6) 11:39 PM CST (3/6)
Length of Visible Light 12h 29m
Length of Day
11h 41m
Waxing Crescent, 32% of the Moon is Illuminated
Mar 6
Waxing Crescent
Mar 8
First Quarter
Mar 16
Full
Mar 23
Last Quarter
Mar 30
New

Hourly Weather History & Observations

Time (CST) Temp. Dew Point Humidity Pressure Visibility Wind Dir Wind Speed Gust Speed Precip Events Conditions
12:18 AM 51.8 °F 50.0 °F 94% 29.98 in 10.0 mi NE 5.8 mph - N/A Rain Light Rain
12:33 AM 51.8 °F 50.0 °F 94% 29.98 in 10.0 mi North 5.8 mph - N/A   Mostly Cloudy
12:58 AM 51.6 °F 50.2 °F 95% 29.99 in 10.0 mi NE 5.8 mph - 0.03 in   Overcast
1:52 AM 51.8 °F 50.0 °F 94% 29.95 in 10.0 mi NNE 4.6 mph - N/A Rain Light Rain
1:58 AM 51.4 °F 50.7 °F 97% 29.96 in 10.0 mi NNE 4.6 mph - 0.00 in Rain Light Rain
2:16 AM 51.8 °F 50.0 °F 94% 29.93 in 10.0 mi NE 6.9 mph - N/A   Scattered Clouds
2:29 AM 51.8 °F 51.8 °F 100% 29.97 in 10.0 mi WNW 4.6 mph - N/A Rain Light Rain
2:39 AM 51.8 °F 51.8 °F 100% 29.99 in 9.0 mi West 2.3 mph - N/A Rain Light Rain
2:44 AM 51.8 °F 51.8 °F 100% 29.98 in 5.0 mi Calm Calm - N/A Rain Rain
2:49 AM 51.8 °F 51.8 °F 100% 29.98 in 4.0 mi Calm Calm - N/A Rain Rain
2:58 AM 51.3 °F 51.1 °F 99% 29.97 in 3.0 mi ESE 4.6 mph - 0.10 in Rain Rain
3:08 AM 51.8 °F 51.8 °F 100% 29.92 in 5.0 mi East 10.4 mph - N/A Rain Rain
3:13 AM 51.8 °F 51.8 °F 100% 29.91 in 6.0 mi East 9.2 mph - N/A Rain Light Rain
3:18 AM 51.8 °F 51.8 °F 100% 29.91 in 8.0 mi Variable 6.9 mph - N/A Rain Light Rain
3:23 AM 51.8 °F 51.8 °F 100% 29.94 in 10.0 mi Variable 4.6 mph - N/A Rain Light Rain
3:33 AM 51.8 °F 51.8 °F 100% 29.93 in 10.0 mi North 5.8 mph - N/A Rain Light Rain
3:36 AM 51.8 °F 51.8 °F 100% 29.94 in 10.0 mi NNW 4.6 mph - N/A   Mostly Cloudy
3:56 AM 51.8 °F 51.8 °F 100% 29.94 in 10.0 mi North 1.2 mph - N/A   Overcast
3:58 AM 51.4 °F 51.4 °F 100% 29.95 in 10.0 mi North 2.3 mph - 0.06 in   Overcast
4:03 AM 51.8 °F 51.8 °F 100% 29.94 in 10.0 mi NW 4.6 mph - N/A   Overcast
4:18 AM 51.8 °F 51.8 °F 100% 29.94 in 10.0 mi Calm Calm - N/A   Overcast
4:33 AM 51.8 °F 51.8 °F 100% 29.92 in 10.0 mi North 3.5 mph - N/A   Overcast
4:58 AM 50.7 °F 50.7 °F 100% 29.91 in 10.0 mi NNE 6.9 mph - N/A   Mostly Cloudy
5:58 AM 50.5 °F 50.5 °F 100% 29.96 in 10.0 mi North 4.6 mph - N/A   Overcast
6:18 AM 50.0 °F 50.0 °F 100% 29.96 in 10.0 mi NNW 5.8 mph - N/A   Overcast
6:28 AM 50.0 °F 50.0 °F 100% 29.96 in 10.0 mi NNW 5.8 mph - N/A   Overcast
6:53 AM 50.0 °F 50.0 °F 100% 29.97 in 10.0 mi NNW 5.8 mph - N/A   Overcast
6:58 AM 50.7 °F 50.7 °F 100% 29.98 in 10.0 mi NNW 4.6 mph - N/A   Overcast
7:04 AM 50.0 °F 50.0 °F 100% 29.98 in 8.0 mi North 5.8 mph - N/A   Light Drizzle
7:24 AM 50.0 °F 50.0 °F 100% 29.98 in 4.0 mi North 6.9 mph - N/A   Light Drizzle
7:26 AM 50.0 °F 50.0 °F 100% 29.98 in 4.0 mi North 5.8 mph - N/A   Overcast
7:31 AM 51.8 °F 51.8 °F 100% 29.98 in 3.0 mi North 6.9 mph - N/A   Overcast
7:36 AM 51.8 °F 51.8 °F 100% 29.98 in 3.0 mi NNW 5.8 mph - N/A   Overcast
7:46 AM 51.8 °F 51.8 °F 100% 29.98 in 2.5 mi NNW 6.9 mph - N/A   Overcast
7:51 AM 51.8 °F 51.8 °F 100% 29.98 in 2.0 mi NNW 8.1 mph - N/A   Overcast
7:56 AM 51.8 °F 51.8 °F 100% 29.98 in 2.5 mi North 5.8 mph - N/A   Overcast
7:58 AM 51.8 °F 51.8 °F 100% 29.99 in 2.5 mi North 5.8 mph - 0.01 in   Overcast
8:03 AM 51.8 °F 51.8 °F 100% 29.98 in 3.0 mi NNW 6.9 mph - N/A   Overcast
8:08 AM 51.8 °F 51.8 °F 100% 29.98 in 3.0 mi NNW 8.1 mph - N/A   Overcast
8:13 AM 51.8 °F 51.8 °F 100% 29.98 in 3.0 mi North 8.1 mph - N/A   Overcast
8:23 AM 51.8 °F 51.8 °F 100% 29.98 in 5.0 mi NNW 5.8 mph - N/A   Overcast
8:38 AM 51.8 °F 51.8 °F 100% 29.98 in 6.0 mi North 10.4 mph - N/A   Overcast
8:58 AM 53.6 °F 53.6 °F 100% 29.98 in 9.0 mi North 8.1 mph - N/A   Overcast
9:23 AM 55.4 °F 53.6 °F 94% 29.96 in 10.0 mi North 6.9 mph - N/A   Scattered Clouds
9:58 AM 57.4 °F 54.3 °F 90% 29.97 in 10.0 mi North 3.5 mph - N/A   Scattered Clouds
10:33 AM 59.0 °F 53.6 °F 82% 29.95 in 10.0 mi North 3.5 mph - N/A   Overcast
10:58 AM 59.4 °F 54.1 °F 83% 29.96 in 10.0 mi NW 5.8 mph - N/A   Overcast
11:58 AM 59.7 °F 52.2 °F 76% 29.94 in 10.0 mi North 6.9 mph - N/A   Overcast
12:08 PM 59.0 °F 51.8 °F 77% 29.93 in 10.0 mi North 6.9 mph - N/A   Overcast
12:58 PM 60.6 °F 51.8 °F 73% 29.92 in 10.0 mi North 5.8 mph - N/A   Overcast
1:58 PM 59.0 °F 51.4 °F 76% 29.91 in 10.0 mi North 11.5 mph - N/A   Overcast
2:28 PM 59.0 °F 51.8 °F 77% 29.91 in 10.0 mi North 11.5 mph - N/A   Overcast
2:58 PM 56.8 °F 51.1 °F 81% 29.92 in 10.0 mi North 11.5 mph - N/A   Overcast
3:54 PM 53.6 °F 51.8 °F 94% 29.91 in 7.0 mi North 12.7 mph - N/A Rain Light Rain
3:58 PM 53.6 °F 51.8 °F 94% 29.92 in 8.0 mi NNW 12.7 mph - N/A Rain Light Rain
4:18 PM 53.6 °F 51.8 °F 94% 29.91 in 7.0 mi NNW 11.5 mph - N/A Rain Light Rain
4:33 PM 51.8 °F 51.8 °F 100% 29.91 in 9.0 mi NNW 10.4 mph - N/A Rain Light Rain
4:38 PM 51.8 °F 51.8 °F 100% 29.91 in 10.0 mi North 11.5 mph - N/A Rain Light Rain
4:43 PM 51.8 °F 51.8 °F 100% 29.91 in 10.0 mi North 12.7 mph - N/A   Overcast
4:48 PM 51.8 °F 51.8 °F 100% 29.91 in 10.0 mi North 11.5 mph - N/A   Overcast
4:51 PM 51.8 °F 51.8 °F 100% 29.91 in 10.0 mi North 11.5 mph - N/A Rain Light Rain
4:56 PM 51.8 °F 51.8 °F 100% 29.92 in 10.0 mi North 12.7 mph - N/A Rain Light Rain
4:58 PM 52.5 °F 51.6 °F 97% 29.93 in 10.0 mi NNW 11.5 mph - 0.04 in Rain Light Rain
5:04 PM 51.8 °F 51.8 °F 100% 29.92 in 10.0 mi North 10.4 mph - N/A Rain Light Rain
5:08 PM 51.8 °F 51.8 °F 100% 29.92 in 10.0 mi North 10.4 mph - N/A Rain Light Rain
5:13 PM 51.8 °F 51.8 °F 100% 29.92 in 10.0 mi North 12.7 mph - N/A Rain Light Rain
5:53 PM 51.8 °F 51.8 °F 100% 29.93 in 10.0 mi North 10.4 mph - N/A Rain Light Rain
5:58 PM 51.6 °F 50.9 °F 97% 29.94 in 10.0 mi North 10.4 mph - 0.02 in   Light Drizzle
5:59 PM 51.8 °F 50.0 °F 94% 29.93 in 10.0 mi North 12.7 mph - N/A   Overcast
6:58 PM 51.1 °F 50.2 °F 97% 29.94 in 10.0 mi North 12.7 mph - 0.00 in   Overcast
7:13 PM 50.0 °F 48.2 °F 94% 29.94 in 10.0 mi North 10.4 mph - N/A   Overcast
7:58 PM 50.5 °F 48.9 °F 94% 29.97 in 10.0 mi North 12.7 mph - N/A   Overcast
8:38 PM 50.0 °F 48.2 °F 94% 29.96 in 10.0 mi North 11.5 mph - N/A   Overcast
8:53 PM 50.0 °F 48.2 °F 94% 29.96 in 10.0 mi North 10.4 mph - N/A   Overcast
8:58 PM 50.0 °F 48.2 °F 94% 29.98 in 10.0 mi North 10.4 mph - N/A   Overcast
9:58 PM 49.6 °F 48.4 °F 95% 30.00 in 10.0 mi North 11.5 mph - N/A   Overcast
10:18 PM 50.0 °F 48.2 °F 94% 29.99 in 10.0 mi North 12.7 mph - N/A   Overcast
10:58 PM 48.6 °F 45.9 °F 90% 30.00 in 10.0 mi North 11.5 mph - N/A   Overcast
11:03 PM 48.2 °F 46.4 °F 93% 29.99 in 10.0 mi North 12.7 mph - N/A   Overcast
11:58 PM 48.2 °F 44.6 °F 87% 30.00 in 10.0 mi North 11.5 mph - N/A   Overcast